Change the Weather History Date:

Tuesday, May 20, 2014

  Actual Average Record
Temperature  
Mean Temperature 60 °F -  
Max Temperature 71 °F 70 °F 89 °F (1934)
Min Temperature 50 °F 42 °F 23 °F (1967)
Degree Days  
Heating Degree Days 4    
Growing Degree Days 10 (Base 50)    
Moisture  
Dew Point 49 °F    
Average Humidity 66    
Maximum Humidity 100    
Minimum Humidity 38    
Precipitation  
Precipitation 0.00 in - - ()
Sea Level Pressure  
Sea Level Pressure 29.83 in    
Wind  
Wind Speed 8 mph (West)    
Max Wind Speed 22 mph    
Max Gust Speed 31 mph    
Visibility 7 miles    
Events Fog    
Averages and records for this station are not official NWS values.
T = Trace of Precipitation, MM = Missing Value Source: NWS Daily Summary

Daily Weather History Graph

Daily Weather History Graph

Search for Another Location

Airport or City:

Trip Planner

Search our weather history database for the weather conditions in past years. The results will help you decide how hot, cold, wet, or windy it might be!

Date:

Astronomy

May. 20, 2014 Rise Set
Actual Time 5:43 AM CDT 8:57 PM CDT
Civil Twilight 5:06 AM CDT 9:34 PM CDT
Nautical Twilight 4:18 AM CDT 10:22 PM CDT
Astronomical Twilight 3:19 AM CDT 11:23 PM CDT
Moon 1:19 AM CDT (5/20) 12:01 PM CDT (5/20)
Length of Visible Light 16h 28m
Length of Day
15h 14m
Waning Gibbous, 60% of the Moon is Illuminated
May 20
Waning Gibbous
May 21
Last Quarter
May 28
New
Jun 5
First Quarter
Jun 12
Full

Hourly Weather History & Observations

Time (CDT) Temp. Dew Point Humidity Pressure Visibility Wind Dir Wind Speed Gust Speed Precip Events Conditions
12:14 AM 53.6 °F 53.6 °F 100% 29.73 in 1.0 mi SSE 8.1 mph - N/A   Overcast
12:34 AM 53.6 °F 53.6 °F 100% 29.74 in 1.0 mi SSE 9.2 mph - N/A   Overcast
1:14 AM 55.4 °F 55.4 °F 100% 29.74 in 0.8 mi South 6.9 mph - N/A   Overcast
1:34 AM 55.4 °F 55.4 °F 100% 29.75 in 0.5 mi SSW 8.1 mph - N/A Fog Fog
1:55 AM 55.4 °F 55.4 °F 100% 29.75 in 0.2 mi South 5.8 mph - N/A Fog Fog
2:14 AM 55.4 °F 55.4 °F 100% 29.75 in 0.2 mi SSW 5.8 mph - N/A Fog Fog
2:34 AM 55.4 °F 55.4 °F 100% 29.74 in 0.2 mi South 3.5 mph - N/A Fog Fog
2:55 AM 55.4 °F 55.4 °F 100% 29.75 in 0.2 mi SSW 5.8 mph - N/A Fog Fog
3:14 AM 55.4 °F 55.4 °F 100% 29.75 in 0.2 mi SW 5.8 mph - N/A Fog Fog
3:34 AM 55.4 °F 55.4 °F 100% 29.76 in 0.5 mi SSW 4.6 mph - N/A Fog Fog
3:55 AM 55.4 °F 55.4 °F 100% 29.77 in 0.5 mi SW 5.8 mph - N/A Fog Fog
4:14 AM 53.6 °F - N/A% 29.77 in 0.2 mi SW 4.6 mph - N/A Fog Fog
4:35 AM 53.6 °F - N/A% 29.78 in 0.2 mi WSW 4.6 mph - N/A Fog Fog
4:54 AM 53.6 °F - N/A% 29.79 in 0.2 mi SW 4.6 mph - N/A Fog Fog
5:15 AM 51.8 °F - N/A% 29.79 in 0.2 mi WSW 3.5 mph - N/A   Drizzle
5:35 AM 51.8 °F - N/A% 29.79 in 0.2 mi Calm Calm - N/A Fog Fog
5:55 AM 51.8 °F - N/A% 29.79 in 0.2 mi Calm Calm - N/A Fog Fog
6:14 AM 51.8 °F - N/A% 29.80 in 0.2 mi Calm Calm - N/A Fog Fog
6:35 AM 50.0 °F - N/A% 29.80 in 0.2 mi Calm Calm - N/A   Light Drizzle
6:55 AM 50.0 °F - N/A% 29.80 in 0.2 mi Calm Calm - N/A Fog Fog
7:14 AM 50.0 °F - N/A% 29.80 in 0.2 mi Calm Calm - N/A Fog Fog
7:35 AM 51.8 °F - N/A% 29.81 in 0.2 mi Calm Calm - N/A Fog Fog
7:55 AM 53.6 °F - N/A% 29.81 in 3.0 mi SW 3.5 mph - N/A   Scattered Clouds
8:14 AM 53.6 °F - N/A% 29.81 in 10.0 mi West 4.6 mph - N/A   Clear
8:35 AM 55.4 °F 53.6 °F 94% 29.81 in 10.0 mi WNW 6.9 mph - N/A   Clear
8:55 AM 59.0 °F 50.0 °F 72% 29.82 in 10.0 mi West 5.8 mph - N/A   Clear
9:14 AM 59.0 °F 50.0 °F 72% 29.82 in 10.0 mi West 4.6 mph - N/A   Clear
9:35 AM 60.8 °F 50.0 °F 68% 29.83 in 10.0 mi West 4.6 mph - N/A   Clear
9:55 AM 60.8 °F 50.0 °F 68% 29.83 in 10.0 mi WSW 8.1 mph - N/A   Clear
10:14 AM 62.6 °F 50.0 °F 63% 29.84 in 10.0 mi SW 10.4 mph - N/A   Clear
10:35 AM 62.6 °F 51.8 °F 68% 29.85 in 10.0 mi West 8.1 mph - N/A   Clear
10:55 AM 64.4 °F 50.0 °F 59% 29.85 in 10.0 mi West 9.2 mph - N/A   Clear
11:14 AM 64.4 °F 50.0 °F 59% 29.85 in 10.0 mi WNW 11.5 mph - N/A   Clear
11:35 AM 64.4 °F 50.0 °F 59% 29.85 in 10.0 mi West 11.5 mph 17.3 mph N/A   Clear
11:55 AM 66.2 °F 50.0 °F 56% 29.85 in 10.0 mi NW 11.5 mph - N/A   Clear
12:14 PM - - N/A% - - North - - N/A   Unknown
12:35 PM - - N/A% - - North - - N/A   Unknown
12:54 PM 66.2 °F 50.0 °F 56% 29.85 in 10.0 mi West 10.4 mph - N/A   Unknown
1:15 PM 68.0 °F 50.0 °F 52% 29.85 in 10.0 mi West 10.4 mph - N/A   Clear
1:34 PM 68.0 °F 48.2 °F 49% 29.85 in 10.0 mi WSW 10.4 mph 19.6 mph N/A   Clear
1:55 PM 68.0 °F 48.2 °F 49% 29.84 in 10.0 mi West 9.2 mph - N/A   Clear
2:15 PM 69.8 °F 50.0 °F 49% 29.84 in 5.0 mi WSW 12.7 mph 19.6 mph N/A   Light Drizzle
2:35 PM - - N/A% - - North - - N/A   Unknown
2:55 PM 71.6 °F 48.2 °F 43% 29.83 in 10.0 mi West 10.4 mph 20.7 mph N/A   Clear
3:14 PM 71.6 °F 48.2 °F 43% 29.83 in 10.0 mi WSW 16.1 mph 23.0 mph N/A   Scattered Clouds
3:35 PM 71.6 °F 46.4 °F 41% 29.82 in 10.0 mi WSW 13.8 mph 18.4 mph N/A   Scattered Clouds
3:55 PM 71.6 °F 46.4 °F 41% 29.82 in 10.0 mi West 12.7 mph 18.4 mph N/A   Clear
4:14 PM 71.6 °F 46.4 °F 41% 29.82 in 10.0 mi West 13.8 mph - N/A   Clear
4:55 PM 71.6 °F 44.6 °F 38% 29.81 in 10.0 mi West 11.5 mph 24.2 mph N/A   Scattered Clouds
5:14 PM 71.6 °F 46.4 °F 41% 29.82 in 10.0 mi West 16.1 mph 19.6 mph N/A   Scattered Clouds
5:35 PM 69.8 °F 46.4 °F 43% 29.83 in 10.0 mi WNW 17.3 mph 26.5 mph N/A   Clear
5:55 PM 69.8 °F 46.4 °F 43% 29.83 in 10.0 mi NW 18.4 mph 25.3 mph N/A   Clear
6:14 PM 69.8 °F 48.2 °F 46% 29.83 in 10.0 mi NW 21.9 mph 26.5 mph N/A   Clear
6:35 PM 68.0 °F 46.4 °F 46% 29.83 in 10.0 mi NW 18.4 mph 24.2 mph N/A   Clear
6:55 PM 68.0 °F 46.4 °F 46% 29.84 in 10.0 mi WNW 17.3 mph 24.2 mph N/A   Clear
7:14 PM 68.0 °F 46.4 °F 46% 29.85 in 10.0 mi NW 15.0 mph 21.9 mph N/A   Clear
7:35 PM 64.4 °F 46.4 °F 52% 29.86 in 10.0 mi NW 19.6 mph 24.2 mph N/A   Clear
7:55 PM 62.6 °F 44.6 °F 52% 29.87 in 10.0 mi NW 20.7 mph 27.6 mph N/A   Clear
8:14 PM 60.8 °F 44.6 °F 55% 29.88 in 10.0 mi NW 18.4 mph 31.1 mph N/A   Clear
8:35 PM 59.0 °F 44.6 °F 59% 29.89 in 10.0 mi NW 19.6 mph 25.3 mph N/A   Clear
8:54 PM 57.2 °F 42.8 °F 59% 29.89 in 10.0 mi NW 15.0 mph - N/A   Clear
9:15 PM 55.4 °F 42.8 °F 63% 29.90 in 10.0 mi NW 15.0 mph 20.7 mph N/A   Clear
9:35 PM 55.4 °F 42.8 °F 63% 29.90 in 10.0 mi NW 13.8 mph 19.6 mph N/A   Clear
9:54 PM 53.6 °F 42.8 °F 67% 29.91 in 10.0 mi NW 10.4 mph - N/A   Clear
10:15 PM 53.6 °F 44.6 °F 72% 29.91 in 10.0 mi NW 9.2 mph - N/A   Clear
10:35 PM 51.8 °F 44.6 °F 76% 29.92 in 10.0 mi WNW 9.2 mph - N/A   Clear
10:54 PM 53.6 °F 44.6 °F 72% 29.92 in 10.0 mi WNW 12.7 mph 17.3 mph N/A   Mostly Cloudy
11:15 PM 53.6 °F 44.6 °F 72% 29.92 in 10.0 mi WNW 10.4 mph 18.4 mph N/A   Overcast
11:35 PM 53.6 °F 44.6 °F 72% 29.92 in 10.0 mi NW 13.8 mph 18.4 mph N/A   Overcast
11:54 PM 53.6 °F 44.6 °F 72% 29.92 in 10.0 mi NW 15.0 mph 25.3 mph N/A   Overcast